#timestamp,LO_Frequency,Hit,StdDev 
1526788815.0,286047002.2,N
1526788815.9,286047002.2,N
1526788835.7,286047002.3,N
1526788855.6,286047001.6,N
1526788875.4,286047002.0,N
1526788895.2,286047001.9,N
1526788915.1,286047001.6,N
1526788916.0,286047001.6,N
1526788935.8,286047001.7,N
1526788955.6,286047004.2,Y
1526788975.5,286047002.3,P
1526788995.3,286047002.2,P
1526789015.1,286047002.2,P
1526789035.9,286047002.0,Y
1526789055.7,286047000.9,P
1526789075.5,286047000.5,N
1526789095.4,286047000.1,N
1526789115.2,286047000.3,N
1526789135.0,286047000.0,N
1526789135.9,286047000.0,N
1526789155.8,286046999.9,N
1526789175.6,286047002.2,Y
1526789195.4,286047000.1,P
1526789215.3,286047002.2,P
1526789235.1,286047002.1,N
1526789236.0,286047002.1,N
1526789255.8,286047002.3,N
1526789275.7,286047002.6,N
1526789295.5,286047001.6,N
1526789315.3,286047002.5,N
1526789335.1,286047002.0,N
1526789355.9,286047001.9,N
1526789375.7,286047001.5,N
1526789395.6,286047003.9,Y
1526789415.4,286046999.9,P
1526789435.2,286047000.2,N
1526789455.0,286047002.3,N
1526789455.9,286047002.3,N
1526789475.8,286047002.5,N
1526789495.6,286047002.7,N
1526789515.4,286047002.1,N
1526789535.3,286047001.9,N
1526789555.1,286047004.4,Y
1526789575.8,286046999.8,P
1526789595.7,286046999.7,N
1526789615.5,286047002.4,N
1526789635.3,286047002.5,N
1526789655.2,286047002.1,N
1526789675.9,286047001.3,N
1526789695.7,286047001.6,N
1526789715.6,286047004.0,Y
1526789735.4,286047002.2,P
1526789755.2,286047002.8,P
1526789775.1,286047002.4,P
1526789776.0,286047002.4,Y
1526789795.8,286046998.5,P
1526789815.6,286046998.9,N
1526789835.5,286046998.7,N
1526789855.3,286046998.4,N
1526789875.1,286047000.8,N
1526789895.9,286047001.0,N
1526789915.7,286046998.1,N
1526789935.5,286047000.6,N
1526789955.4,286047000.8,N
1526789975.2,286047000.3,N
1526789995.0,286047000.3,N
1526789995.9,286047000.3,N
1526790015.8,286047002.4,N
1526790035.6,286047000.1,N
1526790055.4,286047000.1,N
1526790075.2,286047000.1,N
1526790095.1,286046999.7,N
1526790096.0,286046999.7,N
1526790115.8,286047000.4,N
1526790135.6,286047000.3,N
1526790155.5,286046999.7,N
1526790175.3,286046999.7,N
1526790195.1,286047002.8,N
1526790215.9,286047002.7,N
1526790235.7,286047002.7,N
1526790255.5,286047002.4,N
1526790275.4,286047000.2,N
1526790295.2,286047002.3,N
1526790315.0,286047002.3,N
1526790315.9,286047002.3,N
1526790335.8,286046999.8,N
1526790355.6,286046999.8,N
1526790375.4,286047002.3,N
1526790395.2,286047002.3,N
1526790415.1,286046999.8,N
1526790416.0,286046999.8,N
1526790435.8,286047000.1,N
1526790455.6,286047002.4,N
1526790475.5,286047002.7,N
1526790495.3,286047002.3,N
1526790515.1,286047002.6,N
1526790535.9,286047002.3,N
1526790555.7,286047001.9,N
1526790575.5,286047001.6,N
1526790595.4,286047002.3,N
1526790615.2,286047002.6,N
1526790635.0,286047002.3,N
1526790635.9,286047002.3,N
1526790655.8,286047002.6,N
1526790675.6,286047002.3,N
1526790695.4,286047002.4,N
1526790715.3,286047002.1,N
1526790735.1,286047002.7,N
1526790736.0,286047002.7,N
1526790755.8,286047002.1,N
1526790775.7,286047002.6,N
1526790795.5,286047002.0,N
1526790815.3,286047002.7,N
1526790835.1,286046999.7,N
1526790855.9,286046999.8,N
1526790875.7,286047002.6,N
1526790895.5,286047000.1,N
1526790915.4,286047000.1,N
1526790935.2,286047000.2,N
1526790955.0,286047000.2,N
1526790955.9,286047000.2,N
1526790975.8,286047002.7,N
1526790995.6,286046999.9,N
1526791015.4,286046999.8,N
1526791035.3,286047002.4,N
1526791055.1,286046999.9,N
1526791056.0,286046999.9,N
1526791075.8,286046999.9,N
1526791095.7,286047000.4,N
1526791115.5,286047000.4,N
1526791135.3,286047000.6,N
1526791155.1,286047000.3,N
1526791175.9,286047000.7,N
1526791195.7,286047000.3,N
1526791215.5,286047001.2,N
1526791235.4,286046998.1,N
1526791255.2,286047000.9,N
1526791275.0,286047001.0,N
1526791275.9,286047001.0,N
1526791295.8,286047000.0,N
1526791315.6,286047000.5,N
1526791335.4,286047001.2,N
1526791355.3,286046998.7,N
1526791375.1,286046999.0,N
1526791376.0,286046999.0,N
1526791395.8,286047001.2,N
1526791415.7,286047001.2,N
1526791435.5,286046998.8,N
1526791455.3,286046999.0,N
1526791475.2,286046999.3,N
1526791495.9,286046999.3,N
1526791515.7,286046999.2,N
1526791535.6,286046996.8,Y
1526791555.4,286046998.7,P
1526791575.2,286046996.7,P
1526791595.0,286046997.1,N
1526791596.0,286046997.1,N
1526791615.8,286046997.2,N
1526791635.6,286046997.3,N
1526791655.4,286046997.4,N
1526791675.3,286046997.4,N
1526791695.1,286046997.4,N
1526791715.8,286046997.6,N
1526791735.7,286046997.2,Y
1526791755.5,286046998.5,P
1526791775.3,286046999.0,N
1526791795.2,286046998.4,N
1526791815.9,286046998.3,Y
1526791835.7,286047000.7,P
1526791855.6,286047000.3,N
1526791875.4,286046998.5,N
1526791895.2,286047000.4,N
1526791915.1,286047000.5,N
1526791916.0,286047000.5,N
1526791935.8,286047000.6,N
1526791955.6,286047000.6,N
1526791975.5,286046999.9,N
1526791995.3,286047000.7,N
1526792015.1,286047000.1,N
1526792035.9,286047000.4,N
1526792055.7,286047001.1,N
1526792075.5,286046998.3,N
1526792095.4,286046998.1,N
1526792115.2,286046998.2,N
1526792135.0,286046998.6,N
1526792135.9,286046998.6,N
1526792155.7,286046998.4,N
1526792175.6,286046999.4,N
1526792195.4,286046998.7,N
1526792215.2,286046998.9,N
1526792235.1,286046998.9,N
1526792236.0,286046998.9,N
1526792255.8,286046999.0,N
1526792275.6,286046998.4,N
1526792295.5,286046999.2,N
1526792315.3,286046999.5,N
1526792335.1,286046996.5,Y
1526792355.9,286046998.7,P
1526792375.7,286046999.5,N
1526792395.5,286046996.5,P
